RYR5JL EPKK-EBCI

Flight info

Callsign RYR5JL
Flight time 1h 35m
Altitude 36000
Route ADADO DCT UTEVO DCT ETUDA DCT BEKVI DCT BALTU DCT DONAD DCT OKG L984 ABERU DCT LONLI DCT MARZA DCT TEKTU DCT TESGA DCT UMUPU T880 BATTY
Aircraft B738/M-SDE2E3FGHIRWXY/LB1

Departure

Time 2026-04-30 18:37
Airport Kraków John Paul II International Airport (EPKK)

Arrival

Time 2026-04-30 20:12
Airport Brussels South Charleroi Airport (EBCI)
Time Latitude Longitude Altitude Speed Heading
2026-04-30 18:09 50.07499 19.80273 799 ft 0 kts 168°
2026-04-30 18:34 50.07491 19.80276 799 ft 3 kts 168°
2026-04-30 18:34 50.07468 19.80374 799 ft 10 kts 26°
2026-04-30 18:34 50.07540 19.80411 799 ft 11 kts 17°
2026-04-30 18:35 50.07620 19.80412 799 ft 12 kts 348°
2026-04-30 18:35 50.07703 19.80384 799 ft 13 kts 348°
2026-04-30 18:35 50.07791 19.80355 799 ft 14 kts 348°
2026-04-30 18:36 50.07994 19.80287 798 ft 12 kts 348°
2026-04-30 18:36 50.08014 19.80219 799 ft 0 kts 257°
2026-04-30 18:36 50.07973 19.79920 799 ft 63 kts 258°
2026-04-30 18:37 50.07832 19.78906 801 ft 126 kts 258°
2026-04-30 18:37 50.07612 19.77314 935 ft 165 kts 256°
2026-04-30 18:37 50.07318 19.75514 1496 ft 177 kts 254°
2026-04-30 18:37 50.06999 19.73576 1999 ft 198 kts 261°
2026-04-30 18:38 50.06738 19.71432 2573 ft 208 kts 262°
2026-04-30 18:38 50.06440 19.69110 2781 ft 229 kts 261°
2026-04-30 18:38 50.06107 19.66657 3146 ft 239 kts 261°
2026-04-30 18:38 50.05791 19.64096 3704 ft 241 kts 269°
2026-04-30 18:39 50.05927 19.61521 4335 ft 240 kts 281°
2026-04-30 18:39 50.06199 19.58854 4749 ft 257 kts 281°
2026-04-30 18:39 50.06478 19.56075 5458 ft 262 kts 281°
2026-04-30 18:39 50.06753 19.53252 6190 ft 266 kts 281°
2026-04-30 18:40 50.07025 19.50375 6853 ft 272 kts 281°
2026-04-30 18:40 50.07296 19.47434 7525 ft 276 kts 281°
2026-04-30 18:40 50.07568 19.44416 8226 ft 280 kts 281°
2026-04-30 18:40 50.07838 19.41371 8875 ft 285 kts 282°
2026-04-30 18:41 50.08104 19.38333 9569 ft 289 kts 282°
2026-04-30 18:41 50.08374 19.35214 10258 ft 293 kts 282°
2026-04-30 18:41 50.08649 19.32029 10723 ft 304 kts 282°
2026-04-30 18:41 50.08944 19.28640 10874 ft 326 kts 282°
2026-04-30 18:42 50.09252 19.25052 11187 ft 341 kts 282°
2026-04-30 18:42 50.09877 19.17591 12369 ft 352 kts 282°
2026-04-30 18:42 50.10192 19.13793 13010 ft 356 kts 282°
2026-04-30 18:45 50.13486 18.73317 19294 ft 396 kts 283°
2026-04-30 18:45 50.13826 18.69040 19811 ft 400 kts 284°
2026-04-30 18:45 50.14168 18.64712 20316 ft 404 kts 284°
2026-04-30 18:46 50.14513 18.60344 20791 ft 409 kts 284°
2026-04-30 18:46 50.14859 18.55927 21309 ft 412 kts 284°
2026-04-30 18:46 50.15206 18.51469 21842 ft 416 kts 284°
2026-04-30 18:46 50.15554 18.46972 22342 ft 420 kts 284°
2026-04-30 18:47 50.15905 18.42432 22817 ft 424 kts 284°
2026-04-30 18:47 50.16257 18.37843 23291 ft 428 kts 284°
2026-04-30 18:47 50.16611 18.33208 23759 ft 432 kts 284°
2026-04-30 18:47 50.16962 18.28587 24174 ft 436 kts 284°
2026-04-30 18:48 50.17322 18.23805 24575 ft 439 kts 285°
2026-04-30 18:48 50.17678 18.19060 24967 ft 443 kts 285°
2026-04-30 18:48 50.18030 18.14333 25349 ft 446 kts 285°
2026-04-30 18:48 50.18389 18.09508 25723 ft 450 kts 285°
2026-04-30 18:49 50.18748 18.04635 26092 ft 453 kts 285°
2026-04-30 18:49 50.19107 17.99737 26466 ft 456 kts 285°
2026-04-30 18:49 50.19466 17.94807 26813 ft 459 kts 285°
2026-04-30 18:49 50.19826 17.89833 27166 ft 462 kts 285°
2026-04-30 18:50 50.20188 17.84816 27511 ft 466 kts 285°
2026-04-30 18:50 50.20550 17.79775 27840 ft 469 kts 285°
2026-04-30 18:50 50.20904 17.74691 28174 ft 473 kts 284°
2026-04-30 18:50 50.21057 17.69508 28474 ft 482 kts 278°
2026-04-30 18:51 50.21028 17.64239 28796 ft 487 kts 277°
2026-04-30 18:51 50.20988 17.58938 29105 ft 490 kts 277°
2026-04-30 18:51 50.20943 17.53599 29413 ft 495 kts 274°
2026-04-30 18:51 50.20523 17.48206 29693 ft 508 kts 264°
2026-04-30 18:52 50.19592 17.42829 29960 ft 516 kts 258°
2026-04-30 18:52 50.18522 17.37458 30266 ft 519 kts 257°
2026-04-30 18:52 50.17422 17.32082 30542 ft 522 kts 257°
2026-04-30 18:52 50.16322 17.26676 30792 ft 524 kts 258°
2026-04-30 18:53 50.15235 17.21244 31091 ft 525 kts 258°
2026-04-30 18:53 50.14177 17.15878 31382 ft 524 kts 258°
2026-04-30 18:53 50.13115 17.10438 31723 ft 524 kts 258°
2026-04-30 18:53 50.12059 17.05021 32110 ft 522 kts 258°
2026-04-30 18:54 50.11004 16.99613 32492 ft 519 kts 258°
2026-04-30 18:54 50.09952 16.94242 32878 ft 517 kts 258°
2026-04-30 18:54 50.08900 16.88895 33266 ft 515 kts 258°
2026-04-30 18:54 50.07851 16.83576 33685 ft 512 kts 258°
2026-04-30 18:55 50.06805 16.78290 34067 ft 510 kts 258°
2026-04-30 18:55 50.04711 16.67749 34670 ft 508 kts 258°
2026-04-30 18:55 50.03666 16.62505 34934 ft 506 kts 258°
2026-04-30 18:56 50.01786 16.52042 35490 ft 496 kts 267°
2026-04-30 18:56 50.01419 16.46837 35784 ft 486 kts 276°
2026-04-30 18:56 50.01527 16.41647 36077 ft 477 kts 281°
2026-04-30 18:57 50.02009 16.31321 36422 ft 478 kts 282°
2026-04-30 18:57 50.02469 16.21064 36415 ft 477 kts 281°
2026-04-30 18:58 50.03066 16.05708 36415 ft 471 kts 281°
2026-04-30 18:59 50.03562 15.92152 36400 ft 467 kts 281°
2026-04-30 19:00 50.04276 15.72050 36404 ft 467 kts 281°
2026-04-30 19:01 50.04961 15.51795 36426 ft 471 kts 280°
2026-04-30 19:02 50.05454 15.36483 36416 ft 474 kts 280°
2026-04-30 19:03 50.06083 15.15903 36412 ft 476 kts 279°
2026-04-30 19:04 50.06677 14.95290 36412 ft 477 kts 279°
2026-04-30 19:05 50.07235 14.74711 36375 ft 475 kts 279°
2026-04-30 19:06 50.07613 14.54257 36395 ft 473 kts 278°
2026-04-30 19:06 50.07829 14.39005 36400 ft 470 kts 278°
2026-04-30 19:07 50.08042 14.23755 36422 ft 469 kts 278°
2026-04-30 19:08 50.08296 14.03451 36424 ft 469 kts 277°
2026-04-30 19:09 50.08462 13.88219 36426 ft 470 kts 277°
2026-04-30 19:09 50.08562 13.78028 36414 ft 470 kts 277°
2026-04-30 19:10 50.08736 13.57616 36425 ft 472 kts 277°
2026-04-30 19:11 50.08843 13.42295 36431 ft 473 kts 277°
2026-04-30 19:12 50.08904 13.32058 36434 ft 473 kts 276°
2026-04-30 19:12 50.08712 13.21782 36438 ft 475 kts 273°
2026-04-30 19:13 50.08127 13.01226 36434 ft 474 kts 274°
2026-04-30 19:14 50.07872 12.90972 36423 ft 473 kts 274°
2026-04-30 19:14 50.07613 12.80820 36431 ft 471 kts 273°
2026-04-30 19:15 50.07472 12.70665 36432 ft 466 kts 278°
2026-04-30 19:15 50.08066 12.55616 36439 ft 463 kts 280°
2026-04-30 19:16 50.08489 12.45606 36442 ft 463 kts 279°
2026-04-30 19:17 50.09022 12.30607 36435 ft 462 kts 278°
2026-04-30 19:17 50.09507 12.15632 36429 ft 461 kts 278°
2026-04-30 19:18 50.09974 12.00650 36415 ft 462 kts 278°
2026-04-30 19:19 50.10277 11.90653 36410 ft 462 kts 278°
2026-04-30 19:19 50.10713 11.75719 36417 ft 462 kts 278°
2026-04-30 19:20 50.10994 11.65712 36417 ft 462 kts 278°
2026-04-30 19:21 50.11400 11.50683 36427 ft 463 kts 278°
2026-04-30 19:22 50.11910 11.30636 36416 ft 463 kts 277°
2026-04-30 19:23 50.12612 11.00587 36392 ft 462 kts 276°
2026-04-30 19:24 50.12933 10.85599 36404 ft 461 kts 276°
2026-04-30 19:25 50.13424 10.60675 36407 ft 460 kts 276°
2026-04-30 19:26 50.13777 10.40844 36409 ft 459 kts 276°
2026-04-30 19:27 50.14220 10.25962 36394 ft 454 kts 285°
2026-04-30 19:28 50.16739 10.11870 36372 ft 450 kts 291°
2026-04-30 19:29 50.20230 9.93102 36394 ft 451 kts 290°
2026-04-30 19:30 50.23625 9.74230 36391 ft 452 kts 290°
2026-04-30 19:31 50.27000 9.55283 36371 ft 452 kts 289°
2026-04-30 19:31 50.29506 9.41080 36378 ft 452 kts 289°
2026-04-30 19:32 50.31168 9.31605 36371 ft 451 kts 289°
2026-04-30 19:32 50.32819 9.22142 36356 ft 450 kts 289°
2026-04-30 19:33 50.34458 9.12700 36377 ft 449 kts 289°
2026-04-30 19:33 50.36276 9.03348 36375 ft 447 kts 291°
2026-04-30 19:34 50.38167 8.94072 36377 ft 447 kts 291°
2026-04-30 19:35 50.40928 8.80176 36372 ft 447 kts 290°
2026-04-30 19:35 50.42755 8.70849 36371 ft 447 kts 290°
2026-04-30 19:36 50.44554 8.61508 36369 ft 448 kts 287°
2026-04-30 19:36 50.46110 8.46943 36358 ft 452 kts 281°
2026-04-30 19:37 50.47002 8.37178 36368 ft 452 kts 281°
2026-04-30 19:37 50.47935 8.27424 36361 ft 452 kts 281°
2026-04-30 19:38 50.48887 8.17663 36356 ft 452 kts 281°
2026-04-30 19:38 50.49835 8.07911 36357 ft 452 kts 281°
2026-04-30 19:39 50.50774 7.98151 36352 ft 452 kts 281°
2026-04-30 19:39 50.51702 7.88398 36344 ft 452 kts 281°
2026-04-30 19:40 50.52621 7.78640 36347 ft 451 kts 280°
2026-04-30 19:40 50.53527 7.68942 36350 ft 451 kts 280°
2026-04-30 19:41 50.54429 7.59190 36346 ft 451 kts 280°
2026-04-30 19:41 50.55327 7.49418 36339 ft 451 kts 280°
2026-04-30 19:42 50.56050 7.39610 36335 ft 452 kts 272°
2026-04-30 19:42 50.56066 7.31381 36337 ft 453 kts 270°
2026-04-30 19:43 50.56065 7.21486 36336 ft 452 kts 271°
2026-04-30 19:44 50.55910 7.06918 35814 ft 434 kts 268°
2026-04-30 19:44 50.55767 7.02202 35427 ft 431 kts 268°
2026-04-30 19:44 50.55644 6.97523 35058 ft 427 kts 269°
2026-04-30 19:44 50.55531 6.92868 34696 ft 424 kts 268°
2026-04-30 19:45 50.55414 6.88259 34334 ft 421 kts 268°
2026-04-30 19:45 50.55294 6.83674 33931 ft 418 kts 268°
2026-04-30 19:45 50.55173 6.79121 33544 ft 415 kts 268°
2026-04-30 19:45 50.55051 6.74612 33187 ft 411 kts 268°
2026-04-30 19:46 50.54952 6.70145 32819 ft 407 kts 271°
2026-04-30 19:46 50.55211 6.65733 32462 ft 402 kts 282°
2026-04-30 19:46 50.55742 6.61435 32126 ft 399 kts 282°
2026-04-30 19:46 50.56289 6.57227 31775 ft 397 kts 282°
2026-04-30 19:47 50.56834 6.52989 31429 ft 394 kts 282°
2026-04-30 19:47 50.57194 6.50141 31181 ft 393 kts 282°
2026-04-30 19:47 50.57887 6.44521 30727 ft 390 kts 281°
2026-04-30 19:47 50.58393 6.40338 30383 ft 388 kts 281°
2026-04-30 19:48 50.58892 6.36175 29996 ft 386 kts 281°
2026-04-30 19:48 50.59388 6.32030 29630 ft 383 kts 281°
2026-04-30 19:48 50.59871 6.27974 29287 ft 380 kts 281°
2026-04-30 19:48 50.60354 6.23908 28941 ft 376 kts 281°
2026-04-30 19:49 50.60831 6.19867 28592 ft 373 kts 281°
2026-04-30 19:49 50.61770 6.11876 27909 ft 368 kts 281°
2026-04-30 19:49 50.62233 6.07924 27562 ft 366 kts 281°
2026-04-30 19:50 50.62692 6.03990 27237 ft 365 kts 281°
2026-04-30 19:50 50.63148 6.00066 26910 ft 365 kts 280°
2026-04-30 19:50 50.63611 5.96080 26594 ft 373 kts 280°
2026-04-30 19:50 50.64081 5.92026 26256 ft 379 kts 280°
2026-04-30 19:51 50.64550 5.87956 25900 ft 377 kts 280°
2026-04-30 19:51 50.65137 5.83940 25532 ft 375 kts 294°
2026-04-30 19:51 50.66261 5.80325 25230 ft 370 kts 298°
2026-04-30 19:51 50.67453 5.76736 24879 ft 369 kts 298°
2026-04-30 19:52 50.68636 5.73162 24546 ft 367 kts 298°
2026-04-30 19:52 50.69806 5.69595 24213 ft 365 kts 298°
2026-04-30 19:52 50.70965 5.66031 23873 ft 364 kts 298°
2026-04-30 19:52 50.72113 5.62473 23489 ft 363 kts 298°
2026-04-30 19:53 50.73250 5.58933 23124 ft 361 kts 297°
2026-04-30 19:53 50.74379 5.55405 22778 ft 358 kts 297°
2026-04-30 19:53 50.75496 5.51907 22446 ft 355 kts 297°
2026-04-30 19:53 50.76604 5.48434 22127 ft 353 kts 297°
2026-04-30 19:54 50.77703 5.44979 21792 ft 351 kts 297°
2026-04-30 19:54 50.78793 5.41551 21475 ft 349 kts 297°
2026-04-30 19:54 50.79879 5.38128 21154 ft 347 kts 297°
2026-04-30 19:54 50.80955 5.34733 20834 ft 345 kts 297°
2026-04-30 19:55 50.82027 5.31349 20519 ft 343 kts 297°
2026-04-30 19:55 50.83089 5.27987 20198 ft 341 kts 297°
2026-04-30 19:55 50.84148 5.24634 19881 ft 340 kts 297°
2026-04-30 19:55 50.85187 5.21341 19573 ft 338 kts 297°
2026-04-30 19:56 50.86237 5.18007 19267 ft 337 kts 297°
2026-04-30 19:56 50.87276 5.14678 18955 ft 336 kts 294°
2026-04-30 19:56 50.87871 5.11125 18625 ft 333 kts 273°
2026-04-30 19:56 50.88029 5.07486 18312 ft 331 kts 272°
2026-04-30 19:57 50.88164 5.03848 17963 ft 330 kts 272°
2026-04-30 19:57 50.88300 5.00229 17641 ft 328 kts 272°
2026-04-30 19:57 50.88442 4.96632 17327 ft 327 kts 272°
2026-04-30 19:57 50.88589 4.93050 17018 ft 325 kts 272°
2026-04-30 19:58 50.88739 4.89486 16715 ft 323 kts 272°
2026-04-30 19:58 50.88890 4.85943 16412 ft 322 kts 272°
2026-04-30 19:58 50.89040 4.82419 16111 ft 320 kts 272°
2026-04-30 19:58 50.89190 4.78911 15809 ft 319 kts 272°
2026-04-30 19:59 50.89338 4.75417 15510 ft 318 kts 272°
2026-04-30 19:59 50.89485 4.71929 15210 ft 316 kts 272°
2026-04-30 19:59 50.89776 4.64997 14594 ft 314 kts 272°
2026-04-30 20:00 50.89918 4.61551 14294 ft 313 kts 272°
2026-04-30 20:00 50.90056 4.58108 13989 ft 312 kts 270°
2026-04-30 20:00 50.89763 4.54796 13629 ft 306 kts 244°
2026-04-30 20:00 50.88646 4.51993 13264 ft 300 kts 222°
2026-04-30 20:01 50.85397 4.47940 12637 ft 294 kts 213°
2026-04-30 20:01 50.83750 4.46026 12337 ft 293 kts 213°
2026-04-30 20:01 50.82115 4.44117 12062 ft 292 kts 213°
2026-04-30 20:02 50.78877 4.40309 11482 ft 289 kts 213°
2026-04-30 20:02 50.77267 4.38407 11185 ft 288 kts 213°
2026-04-30 20:03 50.74071 4.34627 10608 ft 286 kts 213°
2026-04-30 20:03 50.72503 4.32775 10328 ft 285 kts 213°
2026-04-30 20:03 50.70885 4.30986 10009 ft 282 kts 203°
2026-04-30 20:03 50.69036 4.30231 9720 ft 273 kts 182°
2026-04-30 20:04 50.67152 4.29965 9415 ft 271 kts 182°
2026-04-30 20:04 50.65267 4.29716 9087 ft 271 kts 182°
2026-04-30 20:04 50.63395 4.29468 8804 ft 269 kts 182°
2026-04-30 20:05 50.59717 4.28977 7964 ft 264 kts 182°
2026-04-30 20:05 50.57892 4.28733 7513 ft 262 kts 182°
2026-04-30 20:05 50.54284 4.28245 6676 ft 259 kts 182°
2026-04-30 20:06 50.52503 4.28004 6255 ft 255 kts 182°
2026-04-30 20:06 50.50752 4.27767 5938 ft 249 kts 182°
2026-04-30 20:06 50.49059 4.27446 5672 ft 243 kts 193°
2026-04-30 20:06 50.47619 4.26104 5373 ft 244 kts 221°
2026-04-30 20:07 50.46655 4.23935 5154 ft 242 kts 239°
2026-04-30 20:07 50.45949 4.21581 4936 ft 235 kts 241°
2026-04-30 20:07 50.43663 4.18833 4277 ft 209 kts 178°
2026-04-30 20:08 50.42250 4.19110 4023 ft 202 kts 159°
2026-04-30 20:08 50.41013 4.20008 3759 ft 191 kts 140°
2026-04-30 20:08 50.40245 4.21603 3525 ft 180 kts 116°
2026-04-30 20:08 50.39977 4.23475 3305 ft 176 kts 96°
2026-04-30 20:09 50.40207 4.25382 3095 ft 183 kts 74°
2026-04-30 20:09 50.40739 4.27200 2902 ft 182 kts 73°
2026-04-30 20:09 50.41752 4.30697 2454 ft 169 kts 73°
2026-04-30 20:10 50.42686 4.33912 2016 ft 159 kts 73°
2026-04-30 20:10 50.43135 4.35462 1813 ft 158 kts 73°
2026-04-30 20:10 50.43582 4.36996 1634 ft 153 kts 72°
2026-04-30 20:11 50.44437 4.39936 1211 ft 147 kts 70°
2026-04-30 20:11 50.44862 4.41407 1026 ft 148 kts 68°
2026-04-30 20:11 50.45290 4.42873 833 ft 148 kts 69°
2026-04-30 20:12 50.46119 4.45751 595 ft 129 kts 65°
2026-04-30 20:12 50.46403 4.46729 592 ft 68 kts 66°
2026-04-30 20:12 50.46529 4.47158 597 ft 34 kts 65°
2026-04-30 20:13 50.46605 4.47408 596 ft 14 kts 53°
2026-04-30 20:13 50.46673 4.47443 593 ft 11 kts 345°
2026-04-30 20:13 50.46724 4.47408 590 ft 5 kts 335°
2026-04-30 20:13 50.46733 4.47401 590 ft 0 kts 335°
2026-04-30 20:14 50.46742 4.47395 589 ft 5 kts 335°
2026-04-30 20:14 50.46782 4.47366 588 ft 6 kts 336°
2026-04-30 20:15 50.46826 4.47335 587 ft 7 kts 334°
2026-04-30 20:15 50.46855 4.47279 584 ft 5 kts 278°
2026-04-30 20:15 50.46850 4.47239 584 ft 3 kts 250°
2026-04-30 20:15 50.46848 4.47233 584 ft 0 kts 248°
2026-04-30 20:16 50.46845 4.47220 584 ft 1 kts 246°
2026-04-30 20:16 50.46832 4.47176 585 ft 6 kts 245°
2026-04-30 20:17 50.46842 4.47121 584 ft 8 kts 326°
2026-04-30 20:17 50.46869 4.47100 584 ft 2 kts 335°
2026-04-30 20:17 50.46871 4.47098 584 ft 0 kts 335°